Vorticity
8 6 2 2 2 5 3 1 1 15 -0 1 1 3 6 7 14 13 14 7 5 5 6 19 17 9 9 5 5 14 10 4 1 3 2 6 4 11 5 1 -1 10 -49 34 -11
7 7 3 2 2 5 5 1 3 15 0 3 -0 2 8 6 17 14 12 5 4 9 10 16 22 11 6 5 -0 20 14 8 11 -18 7 10 18 -6 1 -11 42 31 39 36 1
6 4 5 4 2 3 4 5 5 17 0 3 1 3 5 3 19 13 7 15 14 11 11 8 11 26 17 0 9 15 5 11 -4 -2 24 4 5 25 20 36 14 45 -17 9 8
7 6 7 4 4 5 4 7 3 17 1 2 1 3 7 9 10 18 15 16 20 13 10 6 7 10 38 1 9 -0 9 -18 2 8 -1 11 8 38 28 -14 18 19 18 9 19
7 4 7 7 6 4 7 9 4 15 0 2 2 3 9 11 27 17 17 17 13 10 7 13 4 9 22 -4 6 -17 13 5 2 -0 -4 -5 29 -10 33 11 14 -1 6 14 19
6 5 5 3 3 4 7 8 5 11 2 1 2 3 9 20 15 9 18 22 11 11 2 14 6 18 11 15 -3 -3 3 -3 -5 -2 -5 63 19 16 26 36 -1 17 9 4 -1
5 6 5 4 4 4 6 4 7 12 3 1 2 6 4 16 21 7 7 15 12 10 14 9 13 16 9 5 7 1 5 8 6 32 -2 6 4 16 -4 10 21 8 14 13 11
7 6 6 4 4 4 6 3 10 12 2 1 3 6 9 21 14 12 19 9 8 3 15 9 22 8 12 7 -4 1 4 6 11 -11 34 9 20 17 8 6 5 14 10 10 4
8 7 4 3 2 4 5 6 10 11 2 0 3 5 17 22 14 19 26 9 15 19 7 11 15 21 7 11 9 44 55 53 6 -1 27 18 9 6 4 14 3 6 6 9 7
7 7 4 3 2 4 4 8 9 9 0 1 3 7 11 20 14 7 10 6 5 16 5 5 3 -14 33 18 13 9 3 21 5 -2 -5 5 10 2 2 9 12 6 7 3 2
7 6 4 3 1 4 6 9 7 12 0 2 -2 6 13 21 12 13 2 10 24 21 3 8 -5 34 66 19 -5 6 -27 -4 -0 3 14 6 3 6 11 13 5 -3 4 6 4
6 8 5 2 4 8 6 10 6 9 2 -1 5 7 13 20 10 5 9 14 9 6 14 3 47 2 3 10 -1 6 -6 11 -1 2 10 2 4 -9 3 4 8 6 3 7 5
6 5 6 5 4 7 10 10 6 9 3 -2 7 3 22 22 8 1 3 6 4 -9 16 22 23 10 16 -3 -2 16 20 4 2 0 13 9 0 1 13 10 3 8 7 3 4
7 10 8 5 6 8 7 11 6 9 3 1 4 9 19 19 9 2 6 10 12 10 27 6 53 22 3 -3 -4 3 39 -4 -2 5 13 7 -4 2 -4 -1 -1 6 1 1 4
5 7 10 3 8 8 7 7 4 6 3 2 5 10 29 13 11 6 -2 1 14 7 6 -11 19 6 1 -4 10 5 56 -3 8 -7 1 0 -0 18 7 -5 7 -0 7 6 6
6 5 6 5 4 8 5 2 4 7 8 -3 6 7 32 11 -2 4 4 13 16 5 1 4 8 2 -17 8 4 3 16 14 0 2 8 1 -10 70 3 21 22 10 4 8 6
9 6 2 5 8 -2 6 7 6 6 3 -5 4 6 20 10 4 12 12 17 11 10 7 11 -2 7 23 -2 2 5 13 4 6 10 8 2 16 7 0 2 8 10 8 11 11
10 8 10 4 12 0 4 6 8 5 2 -3 0 7 21 4 21 13 8 7 8 12 14 -4 12 2 -4 5 9 18 15 2 1 -0 8 -1 1 -2 4 9 7 6 16 8 6
6 7 6 15 13 2 2 13 5 8 4 1 1 3 16 7 21 1 10 10 13 9 17 7 14 -9 16 5 3 12 14 6 -1 5 13 -3 -4 13 3 2 9 13 7 4 5
13 11 1 7 13 13 3 4 8 7 2 0 0 6 9 11 14 2 14 12 10 20 17 -6 5 -1 -10 8 9 21 -5 -2 7 8 6 9 11 1 4 5 3 3 3 8 7
16 8 -5 6 9 17 1 -1 6 8 4 5 -1 8 9 8 13 -1 -2 11 16 -0 -0 2 0 34 26 25 4 6 7 4 5 5 7 14 5 -1 10 19 -3 2 -2 3 3
10 11 -10 17 3 6 12 4 3 10 2 2 1 3 6 12 14 5 12 11 23 -4 10 2 27 -10 -44 19 -3 9 6 9 10 7 6 5 7 12 -4 1 3 6 12 2 -1
11 14 -4 5 23 2 6 9 3 5 2 7 3 8 9 6 10 5 5 10 20 -4 9 11 4 5 3 1 6 7 12 6 4 4 7 7 3 9 20 9 6 1 4 4 7
5 12 6 20 2 19 17 7 2 6 5 4 4 9 8 3 25 5 3 7 8 12 5 5 2 2 7 8 3 5 -1 4 10 11 7 10 11 12 9 9 5 4 3 7 7
8 11 8 16 7 3 7 10 -2 6 4 5 2 7 7 9 19 -23 8 9 9 9 6 5 6 8 7 6 4 3 4 9 -1 3 15 22 12 6 8 5 3 3 3 3 2
11 9 10 12 9 10 12 7 2 6 4 6 3 12 9 11 12 12 10 6 3 8 6 6 5 3 3 4 5 6 6 14 8 6 6 7 13 8 6 5 4 -2 1 3 5
8 10 12 6 15 7 18 18 -2 11 4 8 2 8 9 11 14 8 5 4 2 7 6 4 5 8 12 15 12 10 18 8 8 12 9 7 9 5 3 5 6 8 8 7 6
Height
5835 5836 5835 5835 5834 5833 5831 5829 5827 5823 5819 5815 5811 5806 5800 5795 5788 5786 5782 5780 5776 5778 5777 5777 5776 5778 5781 5785 5787 5788 5791 5795 5795 5792 5792 5792 5796 5798 5797 5799 5801 5801 5801 5804 5806
5830 5829 5830 5829 5828 5827 5826 5825 5822 5819 5815 5812 5808 5802 5796 5792 5786 5783 5781 5778 5776 5773 5774 5774 5773 5775 5779 5783 5786 5787 5791 5790 5789 5790 5789 5790 5793 5794 5796 5797 5795 5795 5795 5795 5803
5823 5824 5824 5823 5823 5822 5821 5820 5818 5815 5812 5808 5804 5799 5792 5787 5784 5780 5777 5775 5772 5772 5771 5772 5772 5774 5776 5781 5785 5786 5788 5787 5788 5788 5788 5790 5792 5795 5795 5790 5794 5792 5798 5796 5799
5816 5816 5817 5817 5817 5816 5816 5815 5813 5810 5808 5804 5800 5795 5788 5783 5781 5776 5773 5771 5768 5768 5769 5771 5772 5773 5776 5781 5784 5786 5782 5781 5782 5782 5785 5789 5791 5791 5790 5786 5787 5787 5791 5791 5794
5808 5809 5811 5811 5811 5810 5810 5810 5809 5806 5804 5800 5796 5791 5785 5779 5775 5772 5770 5767 5765 5766 5768 5770 5771 5773 5774 5777 5778 5780 5779 5781 5782 5780 5782 5787 5788 5785 5782 5778 5781 5784 5786 5788 5790
5801 5802 5804 5805 5805 5804 5805 5805 5804 5801 5800 5796 5793 5788 5781 5777 5773 5770 5768 5765 5763 5765 5767 5768 5769 5770 5772 5773 5775 5778 5777 5779 5784 5781 5780 5783 5781 5780 5779 5778 5780 5780 5787 5787 5787
5793 5795 5797 5798 5799 5799 5800 5799 5799 5797 5795 5792 5789 5783 5778 5774 5771 5769 5767 5764 5763 5764 5765 5766 5766 5767 5768 5769 5773 5773 5777 5781 5780 5781 5784 5784 5783 5780 5779 5780 5779 5781 5787 5786 5789
5785 5788 5790 5792 5792 5793 5794 5794 5794 5792 5792 5788 5785 5780 5777 5772 5770 5768 5765 5763 5762 5763 5764 5764 5765 5767 5769 5770 5772 5774 5777 5781 5777 5777 5780 5781 5784 5784 5783 5784 5787 5787 5789 5786 5786
5777 5780 5783 5785 5785 5787 5788 5789 5788 5788 5787 5784 5782 5778 5774 5771 5769 5767 5764 5763 5762 5762 5763 5765 5766 5767 5770 5771 5774 5774 5775 5777 5777 5777 5780 5781 5784 5785 5787 5789 5790 5791 5790 5792 5790
5770 5773 5775 5777 5779 5781 5782 5783 5783 5783 5783 5779 5778 5775 5772 5770 5768 5767 5765 5763 5761 5763 5764 5766 5766 5766 5767 5771 5774 5774 5777 5779 5781 5782 5783 5782 5786 5784 5785 5788 5790 5792 5793 5795 5796
5761 5765 5768 5771 5772 5774 5776 5778 5780 5780 5778 5776 5774 5771 5768 5767 5766 5766 5764 5762 5762 5763 5764 5765 5766 5766 5766 5769 5772 5772 5774 5781 5783 5783 5784 5785 5786 5787 5787 5791 5792 5794 5794 5796 5798
5751 5756 5760 5763 5766 5767 5769 5771 5773 5774 5774 5771 5770 5767 5765 5764 5765 5764 5763 5763 5761 5761 5761 5764 5764 5767 5770 5769 5770 5774 5777 5776 5784 5786 5787 5787 5787 5788 5786 5790 5792 5794 5796 5794 5799
5742 5747 5751 5754 5758 5761 5764 5764 5767 5768 5769 5768 5767 5764 5762 5762 5762 5762 5762 5761 5761 5763 5762 5765 5765 5766 5770 5770 5770 5772 5774 5779 5783 5785 5787 5788 5788 5786 5788 5788 5789 5791 5792 5792 5795
5731 5737 5742 5746 5751 5753 5756 5760 5761 5763 5763 5764 5763 5761 5759 5759 5760 5760 5760 5760 5761 5763 5763 5765 5764 5768 5765 5768 5768 5773 5775 5779 5781 5784 5786 5785 5787 5787 5787 5786 5785 5788 5786 5789 5791
5720 5726 5732 5738 5741 5746 5750 5752 5754 5757 5758 5759 5759 5757 5756 5757 5757 5757 5757 5757 5759 5761 5763 5767 5765 5768 5769 5770 5770 5774 5776 5779 5782 5783 5782 5782 5785 5786 5785 5786 5786 5785 5786 5786 5789
5708 5715 5722 5729 5732 5737 5740 5745 5749 5752 5753 5752 5754 5753 5754 5753 5755 5755 5753 5755 5758 5760 5761 5765 5767 5769 5769 5770 5771 5775 5777 5779 5778 5776 5777 5782 5782 5781 5783 5783 5785 5785 5785 5783 5782
5696 5703 5711 5717 5722 5729 5734 5738 5742 5743 5748 5748 5748 5749 5750 5750 5752 5752 5750 5753 5755 5758 5760 5764 5767 5769 5767 5769 5771 5774 5775 5775 5776 5776 5778 5776 5775 5777 5778 5778 5781 5782 5780 5779 5780
5682 5691 5699 5706 5709 5719 5724 5730 5733 5740 5742 5742 5742 5745 5746 5747 5750 5748 5746 5750 5753 5756 5759 5761 5764 5764 5765 5766 5769 5771 5771 5772 5772 5773 5774 5774 5771 5772 5773 5774 5777 5776 5779 5780 5779
5667 5677 5688 5694 5698 5706 5713 5719 5727 5734 5737 5738 5737 5739 5743 5744 5746 5742 5744 5746 5750 5752 5756 5756 5759 5763 5763 5762 5766 5767 5767 5771 5771 5772 5771 5773 5773 5772 5770 5770 5772 5775 5776 5775 5777
5653 5666 5679 5680 5687 5694 5702 5710 5720 5727 5728 5730 5731 5735 5737 5740 5741 5740 5742 5744 5746 5750 5752 5755 5755 5757 5760 5760 5763 5762 5766 5765 5768 5769 5769 5770 5768 5765 5768 5768 5770 5770 5772 5772 5772
5639 5650 5667 5665 5674 5681 5690 5700 5715 5720 5722 5724 5727 5730 5733 5735 5737 5739 5739 5742 5744 5745 5748 5750 5754 5757 5757 5759 5761 5761 5763 5764 5765 5764 5764 5766 5764 5764 5765 5766 5766 5766 5768 5768 5767
5626 5638 5651 5651 5661 5672 5682 5696 5706 5711 5714 5716 5720 5724 5727 5731 5732 5735 5737 5739 5742 5742 5744 5747 5751 5751 5751 5756 5756 5758 5760 5761 5760 5762 5760 5759 5763 5761 5762 5763 5763 5761 5761 5763 5762
5613 5626 5633 5641 5651 5664 5676 5687 5696 5702 5705 5710 5714 5719 5723 5727 5728 5729 5733 5735 5738 5739 5740 5745 5746 5749 5749 5751 5754 5755 5755 5755 5754 5754 5755 5755 5758 5758 5756 5756 5755 5755 5753 5754 5755
5599 5607 5616 5630 5648 5657 5668 5677 5686 5693 5698 5703 5708 5712 5717 5720 5724 5727 5728 5730 5732 5736 5737 5740 5742 5745 5747 5749 5750 5748 5749 5750 5749 5748 5749 5750 5751 5751 5751 5750 5747 5747 5747 5748 5747
5580 5594 5610 5622 5632 5643 5653 5666 5676 5682 5689 5696 5699 5705 5711 5716 5718 5720 5722 5725 5728 5732 5735 5736 5738 5740 5742 5743 5742 5740 5741 5743 5743 5743 5743 5745 5744 5746 5743 5741 5741 5739 5740 5741 5738
5569 5590 5602 5617 5628 5637 5649 5660 5669 5675 5682 5688 5693 5701 5707 5710 5714 5717 5718 5720 5725 5728 5730 5732 5733 5734 5735 5736 5735 5736 5736 5740 5738 5739 5738 5739 5739 5740 5737 5735 5733 5731 5731 5731 5728
5566 5584 5596 5607 5617 5626 5638 5652 5663 5669 5676 5682 5688 5696 5701 5705 5709 5710 5713 5717 5719 5721 5724 5727 5727 5728 5729 5729 5728 5730 5733 5731 5732 5733 5733 5733 5732 5733 5731 5731 5732 5732 5729 5724 5721